Ibiza, Spain

5:05 PM CEST on September 21, 2017 (GMT +0200)
Ibiza

Weather History for LEIB - March, 2013

Change the Weather History Date:

Tuesday, March 26, 2013

  Actual Average Record
Temperature  
Mean Temperature 64 °F -  
Max Temperature 70 °F 64 °F 70 °F (2013)
Min Temperature 57 °F 52 °F 45 °F (2015)
Degree Days  
Heating Degree Days 2    
Growing Degree Days 14 (Base 50)    
Moisture  
Dew Point 54 °F    
Average Humidity 78    
Maximum Humidity 100    
Minimum Humidity 51    
Precipitation  
Precipitation 0.02 in 0.05 in - ()
Sea Level Pressure  
Sea Level Pressure 29.68 in    
Wind  
Wind Speed 16 mph ()    
Max Wind Speed 23 mph    
Max Gust Speed 34 mph    
Visibility 6.5 miles    
Events Rain    
Averages and records for this station are not official NWS values.
T = Trace of Precipitation, MM = Missing Value Source: Averaged Metar Reports

Daily Weather History Graph

Daily Weather History Graph

Search for Another Location

Airport or City:

Trip Planner

Search our weather history database for the weather conditions in past years. The results will help you decide how hot, cold, wet, or windy it might be!

Date:

Astronomy

Mar. 26, 2013 Rise Set
Actual Time 6:48 AM CET 7:12 PM CET
Civil Twilight 6:21 AM CET 7:39 PM CET
Nautical Twilight 5:50 AM CET 8:10 PM CET
Astronomical Twilight 5:18 AM CET 8:42 PM CET
Moon 6:32 PM CET (3/26) 5:56 AM CET (3/26)
Length of Visible Light 13h 17m
Length of Day
12h 23m
Waxing Gibbous, 99% of the Moon is Illuminated
Mar 26
Waxing Gibbous
Mar 27
Full
Apr 3
Last Quarter
Apr 10
New
Apr 18
First Quarter

Hourly Weather History & Observations

Time (CET) Temp. Dew Point Humidity Pressure Visibility Wind Dir Wind Speed Gust Speed Precip Events Conditions
12:00 AM 60.8 °F 50.0 °F 68% 29.71 in 6.2 mi SW 20.7 mph - N/A   Partly Cloudy
1:00 AM 59 °F 51 °F 68% 29.71 in 9 mi SW 23.0 mph - -   Scattered Clouds
1:00 AM 59.0 °F 51.8 °F 77% 29.71 in 6.2 mi SW 23.0 mph - N/A   Partly Cloudy
4:00 AM 60.8 °F 51.8 °F 72% 29.65 in 6.2 mi SW 15.0 mph - N/A   Partly Cloudy
5:30 AM 59.0 °F 53.6 °F 82% 29.65 in 6.2 mi SW 20.7 mph - N/A   Partly Cloudy
6:00 AM 59.0 °F 53.6 °F 82% 29.65 in 6.2 mi SW 12.7 mph - N/A   Partly Cloudy
6:30 AM 59.0 °F 53.6 °F 82% 29.65 in - SSW 16.1 mph - N/A   Clear
7:00 AM 58 °F 52 °F 74% 29.68 in 12 mi SW 19.6 mph - -   Clear
7:00 AM 59.0 °F 53.6 °F 82% 29.68 in - SW 18.4 mph - N/A   Clear
7:30 AM 60.8 °F 53.6 °F 77% 29.68 in - SSW 15.0 mph - N/A   Clear
8:00 AM 62.6 °F 53.6 °F 72% 29.68 in - WSW 21.9 mph - N/A   Clear
8:30 AM 60.8 °F 55.4 °F 82% 29.68 in - SW 13.8 mph - N/A   Clear
9:00 AM 64.4 °F 53.6 °F 68% 29.68 in - SW 15.0 mph - N/A   Clear
9:30 AM 64.4 °F 53.6 °F 68% 29.71 in - SW 16.1 mph - N/A   Clear
10:00 AM 64.4 °F 50.0 °F 59% 29.71 in - WSW 23.0 mph - N/A   Clear
10:30 AM 66.2 °F 51.8 °F 60% 29.71 in - SW 20.7 mph - N/A   Clear
11:00 AM 64.4 °F 51.8 °F 64% 29.71 in - SW 19.6 mph 34.5 mph N/A   Clear
11:30 AM 66.2 °F 51.8 °F 60% 29.71 in - SW 20.7 mph - N/A   Clear
12:00 PM 68.0 °F 50.0 °F 52% 29.71 in - SW 19.6 mph - N/A   Clear
12:30 PM 64.4 °F 51.8 °F 64% 29.71 in - SW 20.7 mph - N/A   Clear
1:00 PM 67 °F 53 °F 51% 29.72 in 9 mi SW 19.6 mph - -   Clear
1:00 PM 68.0 °F 50.0 °F 52% 29.71 in - SW 19.6 mph - N/A   Clear
1:30 PM 64.4 °F 51.8 °F 64% 29.71 in - SW 18.4 mph - N/A   Clear
2:00 PM 64.4 °F 51.8 °F 64% 29.68 in - SW 16.1 mph - N/A   Clear
2:30 PM 62.6 °F 53.6 °F 72% 29.68 in - SW 15.0 mph - N/A   Clear
3:00 PM 62.6 °F 55.4 °F 77% 29.68 in - SW 17.3 mph - N/A   Clear
3:30 PM 62.6 °F 57.2 °F 82% 29.68 in - SW 15.0 mph - N/A   Clear
4:00 PM 62.6 °F 59.0 °F 88% 29.65 in 6.2 mi SW 15.0 mph - N/A   Partly Cloudy
4:30 PM 60.8 °F 55.4 °F 82% 29.65 in 6.2 mi SW 15.0 mph - N/A   Partly Cloudy
5:00 PM 60.8 °F 57.2 °F 88% 29.65 in 6.2 mi SW 13.8 mph - N/A   Partly Cloudy
5:30 PM 60.8 °F 57.2 °F 88% 29.65 in 6.2 mi SW 11.5 mph - N/A   Partly Cloudy
6:00 PM 60.8 °F 57.2 °F 88% 29.65 in 6.2 mi SW 11.5 mph - N/A   Partly Cloudy
6:30 PM 60.8 °F 57.2 °F 88% 29.65 in 5.6 mi SW 11.5 mph - N/A   Drizzle
7:00 PM 59 °F 56 °F 85% 29.68 in 4 mi WSW 19.6 mph - - Rain Drizzle
7:30 PM 60.8 °F 57.2 °F 88% 29.65 in 4.3 mi WSW 11.5 mph - N/A Rain Light Rain
8:00 PM 59.0 °F 57.2 °F 94% 29.65 in 6.2 mi SSW 10.4 mph - N/A   Partly Cloudy
8:30 PM 57.2 °F 57.2 °F 100% 29.65 in 6.2 mi SSW 5.8 mph - N/A   Partly Cloudy
9:00 PM 57.2 °F 57.2 °F 100% 29.65 in 6.2 mi SSW 8.1 mph - N/A   Partly Cloudy
9:30 PM 57.2 °F 55.4 °F 94% 29.65 in - SW 6.9 mph - N/A   Clear
10:00 PM 57.2 °F 57.2 °F 100% 29.68 in - SW 6.9 mph - N/A   Clear
10:30 PM 57.2 °F 57.2 °F 100% 29.65 in - SW 5.8 mph - N/A   Clear
11:00 PM 57.2 °F 57.2 °F 100% 29.65 in 6.2 mi SSW 10.4 mph - N/A   Scattered Clouds
11:30 PM 57.2 °F 57.2 °F 100% 29.65 in 6.2 mi SW 5.8 mph - N/A   Partly Cloudy